STARLINK-2667, 48663

Orbit data source: Space-Track

STARLINK-2667, 48663 is a payload satellite owned by SpaceX/Seattle (US) in LEO that was launched on Wed, 26 May 2021 UTC via an FALCON 9 launch vehicle from the Air Force Eastern Test Range (AFETR). Payload-class satellites include a variety of spacecraft equipped with specific instruments for various scientific and technological missions. These include communications satellites like Starlink; space stations such as the ISS; scientific satellites like the Hubble; Earth observation satellites from companies like Planet Labs, Umbra, and HawkEye 360; GPS; miniature CubeSats for education and research; and military/defense satellites.

Loading next visibility...
Identifier
48663, 2021-044AB
Orbit
LEO
Country
Flag of USUS
Related business
Manufacturer
SpaceX/Seattle
Mission
Operational Commercial Communications
Bus & Motor
STARLINK, Unknown motor
Mass
260 kg wet, ~248 kg dry
Launch date (UTC)
2021-05-26 (5 years ago)
Launch vehicle
FALCON 9
Launch site
Air Force Eastern Test Range (AFETR)
Object type
Payload
Rocket body
Debris
Shape & HBR
Box + 1 Pan, 10.1 m
Radar Cross Section
13.562 m², Large (>1 m²)

Expand to show TLE details & history
Last TLE update: 2 days ago

TLE from 2 days ago
0 STARLINK-2667
1 48663U 21044AB  26171.19977725  .00001582  00000-0  62712-4 0  9990
2 48663  53.1600 347.0012 0001280  78.7115 281.4030 15.31704750279673
Epoch: 2026-06-20T04:47Z
TLE epoch observation values (Epoch: 2026-06-20T04:47:40.754Z)
Latitude
-0.00003°
Longitude
6.66354°
Altitude
471.453 km
Speed
7.632 km/s
True Right ascension
23h 08m 00s
True Declination
0° 00' 00"
Sunlit
Object was in daylight at epoch
Visualization orbit readout
Latitude
Unknown
Longitude
Unknown
Altitude
Unknown
Speed
Unknown
Apparent Right ascension
Unknown
Apparent Declination
Unknown
Sunlit
N/A
Visualization observer readout
Local Sidereal Time
23:19:40
Azimuth
Unknown
Elevation
Unknown
Doppler factor
Unknown
Orbital elements
Apogee altitude
471.859 km
Perigee altitude
470.106 km
Semi-major axis
6,849.119 km
Eccentricity
0.00013
Inclination
53.16°
RAAN
347.0012°
Arg. of periapsis
78.7115°
True anomaly
281.38862°
Mean anomaly
281.403°
Eccentric anomaly
281.39581°
Mean motion
3.82905 °/min
Orbital period
94.02 mins
BSTAR
0.000062712
Loading maneuver chart data...
Computing Atmospheric mass density...
Loading historical data...
Loading historical data...
Loading historical data...
Loading historical data...
Loading historical data...
Loading historical data...
Loading historical data...

Documentation

Showing up to 5 results
|